Location: Beeston
(52.7000°N, 0.8167°E)
Time: 11:41:01
(UTC+00:00)

Geosat - Pass Details

Date: 15 May 2026
Orbit: 758 x 760 km, 108.0° (Epoch: 7 June)

Event Time Altitude Azimuth Distance (km) Brightness Sun altitude
Rises 22:25:19 0° 33° (NNE) 3,232 7.8 -15.8°
Reaches altitude 10° 22:27:39 10° 37° (NE) 2,302 6.9 -15.9°
Maximum altitude 22:32:36 58° 117° (ESE) 883 4.1 -16.2°
Enters shadow 22:35:37 23° 190° (S) 1,571 5.1 -16.3°
